Wetterdaten: Donnerstag, 16.04.2015
Datum Zeit Auen-Temp. Temp gefhlt Luftfeuchte Luftdruck Regen Wind Richtung Richtung Taupunkt Windben
16.04.2015 00:01 7,2 C 7,0 C 57 % 1018,9 hPa 0,0 mm 0,0 km/h (0 Bft) O-SO 112 -0,7 C 0,0 km/h (0 Bft)
16.04.2015 00:06 6,7 C 6,6 C 57 % 1018,9 hPa 0,0 mm 0,0 km/h (0 Bft) O-SO 112 -1,2 C 0,0 km/h (0 Bft)
16.04.2015 00:11 6,6 C 6,4 C 58 % 1018,9 hPa 0,0 mm 0,0 km/h (0 Bft) O-SO 112 -1,1 C 0,0 km/h (0 Bft)
16.04.2015 00:16 6,6 C 6,4 C 58 % 1018,9 hPa 0,0 mm 0,0 km/h (0 Bft) O-SO 112 -1,1 C 0,0 km/h (0 Bft)
16.04.2015 00:20 6,8 C 6,4 C 59 % 1018,9 hPa 0,0 mm 0,0 km/h (0 Bft) O-SO 112 -0,6 C 0,0 km/h (0 Bft)
16.04.2015 00:21 6,7 C 6,3 C 59 % 1019,0 hPa 0,0 mm 0,0 km/h (0 Bft) O-SO 112 -0,7 C 0,0 km/h (0 Bft)
16.04.2015 00:26 6,9 C 6,4 C 60 % 1019,0 hPa 0,0 mm 0,0 km/h (0 Bft) O-SO 112 -0,3 C 0,0 km/h (0 Bft)
16.04.2015 00:31 6,9 C 6,4 C 59 % 1019,0 hPa 0,0 mm 0,0 km/h (0 Bft) O-SO 112 -0,5 C 0,0 km/h (0 Bft)
16.04.2015 00:36 7,0 C 6,5 C 60 % 1019,0 hPa 0,0 mm 0,0 km/h (0 Bft) O-SO 112 -0,2 C 0,0 km/h (0 Bft)
16.04.2015 00:38 7,0 C 6,5 C 60 % 1019,0 hPa 0,0 mm 0,0 km/h (0 Bft) O-SO 112 -0,2 C 0,0 km/h (0 Bft)
16.04.2015 00:40 7,0 C 6,5 C 60 % 1019,0 hPa 0,0 mm 0,0 km/h (0 Bft) O-SO 112 -0,2 C 0,0 km/h (0 Bft)
16.04.2015 00:41 6,7 C 6,3 C 60 % 1018,9 hPa 0,0 mm 0,0 km/h (0 Bft) O-SO 112 -0,5 C 0,0 km/h (0 Bft)
16.04.2015 00:46 6,3 C 6,0 C 60 % 1018,9 hPa 0,0 mm 0,0 km/h (0 Bft) O-SO 112 -0,9 C 0,0 km/h (0 Bft)
16.04.2015 00:49 6,3 C 6,0 C 60 % 1018,9 hPa 0,0 mm 0,0 km/h (0 Bft) O-SO 112 -0,9 C 0,0 km/h (0 Bft)
16.04.2015 00:51 6,3 C 5,9 C 62 % 1018,9 hPa 0,0 mm 0,0 km/h (0 Bft) O-SO 112 -0,4 C 0,0 km/h (0 Bft)
16.04.2015 00:56 6,1 C 5,7 C 61 % 1018,9 hPa 0,0 mm 0,0 km/h (0 Bft) O-SO 112 -0,8 C 0,0 km/h (0 Bft)
16.04.2015 00:58 6,1 C 5,7 C 61 % 1018,9 hPa 0,0 mm 0,0 km/h (0 Bft) O-SO 112 -0,8 C 0,0 km/h (0 Bft)
16.04.2015 01:00 6,1 C 5,7 C 61 % 1018,9 hPa 0,0 mm 0,0 km/h (0 Bft) O-SO 112 -0,8 C 0,0 km/h (0 Bft)
16.04.2015 01:05 5,5 C 5,2 C 62 % 1018,8 hPa 0,0 mm 0,0 km/h (0 Bft) O-SO 112 -1,2 C 0,0 km/h (0 Bft)
16.04.2015 01:06 5,4 C 5,1 C 63 % 1018,8 hPa 0,0 mm 0,0 km/h (0 Bft) O-SO 112 -1,1 C 0,0 km/h (0 Bft)
16.04.2015 01:08 5,4 C 5,1 C 63 % 1018,8 hPa 0,0 mm 0,0 km/h (0 Bft) O-SO 112 -1,1 C 0,0 km/h (0 Bft)
16.04.2015 01:10 5,4 C 5,1 C 63 % 1018,8 hPa 0,0 mm 0,0 km/h (0 Bft) O-SO 112 -1,1 C 0,0 km/h (0 Bft)
16.04.2015 01:11 5,3 C 4,9 C 65 % 1018,8 hPa 0,0 mm 0,0 km/h (0 Bft) W 270 -0,7 C 0,0 km/h (0 Bft)
16.04.2015 01:15 5,3 C 4,9 C 65 % 1018,8 hPa 0,0 mm 0,0 km/h (0 Bft) W 270 -0,7 C 0,0 km/h (0 Bft)
16.04.2015 01:16 5,5 C 5,1 C 65 % 1018,8 hPa 0,0 mm 0,0 km/h (0 Bft) NW 315 -0,5 C 0,0 km/h (0 Bft)
16.04.2015 01:20 5,5 C 5,1 C 65 % 1018,8 hPa 0,0 mm 0,0 km/h (0 Bft) NW 315 -0,5 C 0,0 km/h (0 Bft)
16.04.2015 01:25 5,5 C 5,2 C 65 % 1018,5 hPa 0,0 mm 0,0 km/h (0 Bft) O-SO 112 -0,5 C 3,1 km/h (1 Bft)
16.04.2015 01:30 5,4 C 5,2 C 66 % 1018,5 hPa 0,0 mm 0,0 km/h (0 Bft) S-SW 202 -0,4 C 0,0 km/h (0 Bft)
16.04.2015 01:31 5,2 C 5,1 C 66 % 1018,5 hPa 0,0 mm 0,0 km/h (0 Bft) S 180 -0,6 C 0,0 km/h (0 Bft)
16.04.2015 01:33 5,2 C 5,1 C 66 % 1018,5 hPa 0,0 mm 0,0 km/h (0 Bft) S 180 -0,6 C 0,0 km/h (0 Bft)
16.04.2015 01:35 5,2 C 5,1 C 66 % 1018,5 hPa 0,0 mm 0,0 km/h (0 Bft) S 180 -0,6 C 0,0 km/h (0 Bft)
16.04.2015 01:40 5,0 C 4,9 C 67 % 1018,5 hPa 0,0 mm 0,0 km/h (0 Bft) S 180 -0,6 C 0,0 km/h (0 Bft)
16.04.2015 01:45 5,4 C 5,0 C 68 % 1018,2 hPa 0,0 mm 0,0 km/h (0 Bft) S 180 -0,0 C 0,0 km/h (0 Bft)
16.04.2015 01:50 5,6 C 5,2 C 68 % 1018,2 hPa 0,0 mm 0,5 km/h (0 Bft) O-SO 112 0,2 C 0,0 km/h (0 Bft)
16.04.2015 01:55 6,7 C 6,6 C 63 % 1018,2 hPa 0,0 mm 2,3 km/h (1 Bft) SO 135 0,2 C 9,3 km/h (2 Bft)
16.04.2015 02:00 7,4 C 7,0 C 60 % 1018,2 hPa 0,0 mm 2,6 km/h (1 Bft) O-NO 67 0,2 C 0,0 km/h (0 Bft)
16.04.2015 02:01 6,3 C 6,2 C 61 % 1018,2 hPa 0,0 mm 0,8 km/h (0 Bft) SO 135 -0,7 C 0,0 km/h (0 Bft)
16.04.2015 02:04 6,3 C 6,2 C 61 % 1018,2 hPa 0,0 mm 0,8 km/h (0 Bft) SO 135 -0,7 C 0,0 km/h (0 Bft)
16.04.2015 02:05 6,3 C 6,2 C 61 % 1018,2 hPa 0,0 mm 0,8 km/h (0 Bft) SO 135 -0,7 C 0,0 km/h (0 Bft)
16.04.2015 02:06 6,5 C 6,3 C 61 % 1018,2 hPa 0,0 mm 0,3 km/h (0 Bft) O-SO 112 -0,5 C 0,0 km/h (0 Bft)
16.04.2015 02:11 6,5 C 6,3 C 61 % 1018,2 hPa 0,0 mm 0,3 km/h (0 Bft) O-SO 112 -0,5 C 0,0 km/h (0 Bft)
16.04.2015 02:15 6,9 C 6,6 C 60 % 1018,2 hPa 0,0 mm 0,0 km/h (0 Bft) SO 135 -0,3 C 0,0 km/h (0 Bft)
16.04.2015 02:16 6,3 C 6,1 C 60 % 1018,2 hPa 0,0 mm 0,0 km/h (0 Bft) SO 135 -0,9 C 0,0 km/h (0 Bft)
16.04.2015 02:20 6,3 C 6,1 C 60 % 1018,2 hPa 0,0 mm 0,0 km/h (0 Bft) SO 135 -0,9 C 0,0 km/h (0 Bft)
16.04.2015 02:25 6,3 C 6,1 C 60 % 1018,2 hPa 0,0 mm 0,0 km/h (0 Bft) SO 135 -0,9 C 0,0 km/h (0 Bft)
16.04.2015 02:30 7,1 C 6,7 C 59 % 1018,2 hPa 0,0 mm 0,0 km/h (0 Bft) S 180 -0,4 C 0,0 km/h (0 Bft)
16.04.2015 02:35 7,3 C 6,8 C 58 % 1018,2 hPa 0,0 mm 0,0 km/h (0 Bft) S 180 -0,4 C 0,0 km/h (0 Bft)
16.04.2015 02:40 7,0 C 6,7 C 58 % 1018,2 hPa 0,0 mm 0,3 km/h (0 Bft) NO 45 -0,7 C 2,8 km/h (1 Bft)
16.04.2015 02:45 6,0 C 5,9 C 58 % 1018,0 hPa 0,0 mm 1,0 km/h (0 Bft) N-NO 22 -1,6 C 0,0 km/h (0 Bft)
16.04.2015 02:50 6,7 C 6,3 C 59 % 1018,0 hPa 0,0 mm 1,0 km/h (0 Bft) SO 135 -0,7 C 3,1 km/h (1 Bft)
16.04.2015 02:55 8,1 C 7,4 C 56 % 1018,0 hPa 0,0 mm 0,3 km/h (0 Bft) SO 135 -0,1 C 0,0 km/h (0 Bft)
16.04.2015 03:00 7,5 C 7,1 C 56 % 1018,0 hPa 0,0 mm 0,3 km/h (0 Bft) NW 315 -0,7 C 2,8 km/h (1 Bft)
16.04.2015 03:01 6,5 C 6,3 C 57 % 1018,1 hPa 0,0 mm 0,3 km/h (0 Bft) O-NO 67 -1,4 C 0,0 km/h (0 Bft)
16.04.2015 03:03 6,5 C 6,3 C 57 % 1018,1 hPa 0,0 mm 0,3 km/h (0 Bft) O-NO 67 -1,4 C 0,0 km/h (0 Bft)
16.04.2015 03:05 6,5 C 6,3 C 57 % 1018,1 hPa 0,0 mm 0,3 km/h (0 Bft) O-NO 67 -1,4 C 0,0 km/h (0 Bft)
16.04.2015 03:10 6,2 C 5,9 C 57 % 1018,1 hPa 0,0 mm 0,3 km/h (0 Bft) O-NO 67 -1,7 C 0,0 km/h (0 Bft)
16.04.2015 03:15 5,9 C 5,6 C 58 % 1018,1 hPa 0,0 mm 0,0 km/h (0 Bft) O-NO 67 -1,7 C 0,0 km/h (0 Bft)
16.04.2015 03:20 5,6 C 5,3 C 59 % 1018,1 hPa 0,0 mm 0,0 km/h (0 Bft) O-NO 67 -1,8 C 0,0 km/h (0 Bft)
16.04.2015 03:25 5,4 C 5,1 C 59 % 1017,8 hPa 0,0 mm 0,0 km/h (0 Bft) O-NO 67 -2,0 C 0,0 km/h (0 Bft)
16.04.2015 03:30 5,0 C 4,7 C 59 % 1017,8 hPa 0,0 mm 0,0 km/h (0 Bft) O-NO 67 -2,3 C 0,0 km/h (0 Bft)
16.04.2015 03:35 5,4 C 5,0 C 61 % 1017,8 hPa 0,0 mm 0,0 km/h (0 Bft) SO 135 -1,5 C 0,0 km/h (0 Bft)
16.04.2015 03:40 5,1 C 4,8 C 61 % 1017,8 hPa 0,0 mm 0,0 km/h (0 Bft) SO 135 -1,8 C 0,0 km/h (0 Bft)
16.04.2015 03:45 5,2 C 4,9 C 62 % 1017,6 hPa 0,0 mm 0,0 km/h (0 Bft) SO 135 -1,5 C 0,0 km/h (0 Bft)
16.04.2015 03:50 5,2 C 4,9 C 62 % 1017,6 hPa 0,0 mm 0,0 km/h (0 Bft) SO 135 -1,5 C 0,0 km/h (0 Bft)
16.04.2015 03:55 5,4 C 5,1 C 62 % 1017,6 hPa 0,0 mm 0,0 km/h (0 Bft) SO 135 -1,3 C 0,0 km/h (0 Bft)
16.04.2015 04:00 5,3 C 5,1 C 61 % 1017,6 hPa 0,0 mm 0,0 km/h (0 Bft) SO 135 -1,6 C 0,0 km/h (0 Bft)
16.04.2015 04:05 5,5 C 5,4 C 59 % 1017,6 hPa 0,0 mm 0,0 km/h (0 Bft) SO 135 -1,9 C 0,0 km/h (0 Bft)
16.04.2015 04:10 5,3 C 5,2 C 60 % 1017,6 hPa 0,0 mm 0,0 km/h (0 Bft) O-SO 112 -1,8 C 0,0 km/h (0 Bft)
16.04.2015 04:15 5,1 C 5,0 C 61 % 1017,6 hPa 0,0 mm 0,0 km/h (0 Bft) O-SO 112 -1,8 C 0,0 km/h (0 Bft)
16.04.2015 04:20 5,1 C 5,0 C 61 % 1017,6 hPa 0,0 mm 0,0 km/h (0 Bft) O-SO 112 -1,8 C 0,0 km/h (0 Bft)
16.04.2015 04:25 5,3 C 5,1 C 62 % 1017,4 hPa 0,0 mm 0,0 km/h (0 Bft) O-SO 112 -1,4 C 0,0 km/h (0 Bft)
16.04.2015 04:30 5,1 C 5,0 C 61 % 1017,4 hPa 0,0 mm 0,0 km/h (0 Bft) O-SO 112 -1,8 C 0,0 km/h (0 Bft)
16.04.2015 04:35 5,2 C 5,1 C 61 % 1017,4 hPa 0,0 mm 0,3 km/h (0 Bft) O-SO 112 -1,7 C 0,0 km/h (0 Bft)
16.04.2015 04:40 5,1 C 5,0 C 61 % 1017,4 hPa 0,0 mm 0,3 km/h (0 Bft) O-SO 112 -1,8 C 0,0 km/h (0 Bft)
16.04.2015 04:45 5,4 C 5,1 C 60 % 1017,2 hPa 0,0 mm 0,0 km/h (0 Bft) O-SO 112 -1,7 C 0,0 km/h (0 Bft)
16.04.2015 04:50 5,3 C 4,9 C 59 % 1017,2 hPa 0,0 mm 0,0 km/h (0 Bft) O-SO 112 -2,0 C 0,0 km/h (0 Bft)
16.04.2015 04:55 5,5 C 5,1 C 60 % 1017,2 hPa 0,0 mm 0,0 km/h (0 Bft) O-SO 112 -1,6 C 0,0 km/h (0 Bft)
16.04.2015 05:00 5,2 C 4,9 C 59 % 1017,2 hPa 0,0 mm 0,0 km/h (0 Bft) O-SO 112 -2,1 C 0,0 km/h (0 Bft)
16.04.2015 05:05 4,5 C 4,4 C 59 % 1017,0 hPa 0,0 mm 0,0 km/h (0 Bft) O-SO 112 -2,8 C 0,0 km/h (0 Bft)
16.04.2015 05:10 4,1 C 4,0 C 59 % 1017,0 hPa 0,0 mm 0,0 km/h (0 Bft) O-SO 112 -3,2 C 0,0 km/h (0 Bft)
16.04.2015 05:15 4,3 C 4,1 C 61 % 1017,0 hPa 0,0 mm 0,0 km/h (0 Bft) O-SO 112 -2,5 C 0,0 km/h (0 Bft)
16.04.2015 05:20 4,6 C 4,3 C 62 % 1017,0 hPa 0,0 mm 0,0 km/h (0 Bft) O-SO 112 -2,0 C 0,0 km/h (0 Bft)
16.04.2015 05:25 4,7 C 4,4 C 63 % 1016,8 hPa 0,0 mm 0,0 km/h (0 Bft) O-SO 112 -1,7 C 0,0 km/h (0 Bft)
16.04.2015 05:30 4,9 C 4,6 C 63 % 1016,8 hPa 0,0 mm 0,0 km/h (0 Bft) S-SO 157 -1,5 C 0,0 km/h (0 Bft)
16.04.2015 05:35 4,8 C 4,6 C 63 % 1016,8 hPa 0,0 mm 0,0 km/h (0 Bft) O-SO 112 -1,6 C 0,0 km/h (0 Bft)
16.04.2015 05:40 5,3 C 5,0 C 60 % 1016,8 hPa 0,0 mm 0,0 km/h (0 Bft) O-SO 112 -1,8 C 0,0 km/h (0 Bft)
16.04.2015 05:45 5,2 C 5,0 C 61 % 1016,9 hPa 0,0 mm 0,0 km/h (0 Bft) O-SO 112 -1,7 C 0,0 km/h (0 Bft)
16.04.2015 05:50 5,0 C 4,8 C 61 % 1016,9 hPa 0,0 mm 0,0 km/h (0 Bft) O-SO 112 -1,9 C 0,0 km/h (0 Bft)
16.04.2015 05:55 5,4 C 5,1 C 59 % 1016,9 hPa 0,0 mm 0,0 km/h (0 Bft) O-SO 112 -2,0 C 0,0 km/h (0 Bft)
16.04.2015 06:00 5,3 C 5,0 C 61 % 1016,9 hPa 0,0 mm 0,0 km/h (0 Bft) O-SO 112 -1,6 C 0,0 km/h (0 Bft)
16.04.2015 06:05 5,5 C 5,2 C 60 % 1016,8 hPa 0,0 mm 0,0 km/h (0 Bft) O-SO 112 -1,6 C 0,0 km/h (0 Bft)
16.04.2015 06:10 5,3 C 5,1 C 60 % 1016,8 hPa 0,0 mm 0,0 km/h (0 Bft) O-SO 112 -1,8 C 0,0 km/h (0 Bft)
16.04.2015 06:15 5,2 C 5,0 C 60 % 1016,8 hPa 0,0 mm 0,0 km/h (0 Bft) O-SO 112 -1,9 C 0,0 km/h (0 Bft)
16.04.2015 06:20 5,2 C 5,0 C 60 % 1016,8 hPa 0,0 mm 0,0 km/h (0 Bft) O-SO 112 -1,9 C 0,0 km/h (0 Bft)
16.04.2015 06:25 5,4 C 5,2 C 61 % 1017,1 hPa 0,0 mm 0,0 km/h (0 Bft) O-SO 112 -1,5 C 0,0 km/h (0 Bft)
16.04.2015 06:30 5,6 C 5,3 C 59 % 1017,1 hPa 0,0 mm 0,0 km/h (0 Bft) O-SO 112 -1,8 C 0,0 km/h (0 Bft)
16.04.2015 06:35 5,3 C 5,1 C 60 % 1017,1 hPa 0,0 mm 0,0 km/h (0 Bft) O-SO 112 -1,8 C 0,0 km/h (0 Bft)
16.04.2015 06:40 5,3 C 5,1 C 59 % 1017,1 hPa 0,0 mm 0,0 km/h (0 Bft) O-SO 112 -2,0 C 0,0 km/h (0 Bft)
16.04.2015 06:45 5,2 C 5,0 C 59 % 1017,2 hPa 0,0 mm 0,0 km/h (0 Bft) O-SO 112 -2,1 C 0,0 km/h (0 Bft)
16.04.2015 06:50 5,3 C 5,1 C 61 % 1017,2 hPa 0,0 mm 0,0 km/h (0 Bft) O-SO 112 -1,6 C 0,0 km/h (0 Bft)
16.04.2015 06:55 5,5 C 5,3 C 61 % 1017,2 hPa 0,0 mm 0,0 km/h (0 Bft) O-SO 112 -1,4 C 0,0 km/h (0 Bft)
16.04.2015 07:00 5,3 C 5,2 C 60 % 1017,2 hPa 0,0 mm 0,0 km/h (0 Bft) O-SO 112 -1,8 C 0,0 km/h (0 Bft)
16.04.2015 07:05 5,6 C 5,5 C 61 % 1017,4 hPa 0,0 mm 0,3 km/h (0 Bft) O-SO 112 -1,3 C 0,0 km/h (0 Bft)
16.04.2015 07:10 5,6 C 5,6 C 61 % 1017,4 hPa 0,0 mm 0,3 km/h (0 Bft) O-NO 67 -1,3 C 0,0 km/h (0 Bft)
16.04.2015 07:15 5,8 C 5,8 C 61 % 1017,4 hPa 0,0 mm 0,0 km/h (0 Bft) O-NO 67 -1,1 C 0,0 km/h (0 Bft)
16.04.2015 07:20 5,8 C 6,0 C 61 % 1017,4 hPa 0,0 mm 0,0 km/h (0 Bft) O-NO 67 -1,1 C 0,0 km/h (0 Bft)
16.04.2015 07:25 5,8 C 6,3 C 61 % 1017,4 hPa 0,0 mm 0,0 km/h (0 Bft) O-NO 67 -1,1 C 0,0 km/h (0 Bft)
16.04.2015 07:30 5,8 C 6,6 C 61 % 1017,4 hPa 0,0 mm 0,0 km/h (0 Bft) O-NO 67 -1,1 C 0,0 km/h (0 Bft)
16.04.2015 07:35 5,9 C 6,7 C 61 % 1017,4 hPa 0,0 mm 0,0 km/h (0 Bft) O-NO 67 -1,0 C 0,0 km/h (0 Bft)
16.04.2015 07:40 6,2 C 6,9 C 60 % 1017,4 hPa 0,0 mm 0,0 km/h (0 Bft) O 90 -1,0 C 0,0 km/h (0 Bft)
16.04.2015 07:45 8,1 C 10,0 C 59 % 1017,7 hPa 0,0 mm 2,8 km/h (1 Bft) S 180 0,6 C 15,3 km/h (3 Bft)
16.04.2015 07:50 9,5 C 12,7 C 57 % 1017,7 hPa 0,0 mm 6,2 km/h (2 Bft) S-SW 202 1,4 C 12,7 km/h (3 Bft)
16.04.2015 07:55 10,6 C 15,1 C 55 % 1017,7 hPa 0,0 mm 7,5 km/h (2 Bft) S 180 1,9 C 16,6 km/h (3 Bft)
16.04.2015 08:00 11,0 C 16,1 C 54 % 1017,7 hPa 0,0 mm 6,7 km/h (2 Bft) SW 225 2,1 C 7,5 km/h (2 Bft)
16.04.2015 08:05 11,7 C 16,8 C 52 % 1017,9 hPa 0,0 mm 7,8 km/h (2 Bft) S 180 2,2 C 9,8 km/h (2 Bft)
16.04.2015 08:10 12,1 C 17,1 C 51 % 1017,9 hPa 0,0 mm 8,8 km/h (2 Bft) SW 225 2,3 C 12,4 km/h (3 Bft)
16.04.2015 08:15 12,7 C 17,4 C 49 % 1017,9 hPa 0,0 mm 9,3 km/h (2 Bft) S 180 2,3 C 17,3 km/h (3 Bft)
16.04.2015 08:20 13,4 C 17,9 C 47 % 1017,9 hPa 0,0 mm 9,8 km/h (2 Bft) SW 225 2,3 C 13,2 km/h (3 Bft)
16.04.2015 08:25 14,1 C 18,5 C 46 % 1017,9 hPa 0,0 mm 10,1 km/h (2 Bft) S 180 2,7 C 9,8 km/h (2 Bft)
16.04.2015 08:30 14,2 C 19,2 C 46 % 1017,9 hPa 0,0 mm 9,3 km/h (2 Bft) S-SW 202 2,8 C 11,1 km/h (2 Bft)
16.04.2015 08:35 14,5 C 19,9 C 45 % 1017,9 hPa 0,0 mm 8,0 km/h (2 Bft) S-SO 157 2,7 C 3,6 km/h (1 Bft)
16.04.2015 08:40 14,7 C 20,2 C 46 % 1017,9 hPa 0,0 mm 8,0 km/h (2 Bft) S 180 3,2 C 8,0 km/h (2 Bft)
16.04.2015 08:45 15,2 C 20,2 C 45 % 1018,1 hPa 0,0 mm 7,8 km/h (2 Bft) W-SW 247 3,4 C 8,0 km/h (2 Bft)
16.04.2015 08:50 15,5 C 20,4 C 44 % 1018,1 hPa 0,0 mm 8,3 km/h (2 Bft) S-SW 202 3,3 C 12,7 km/h (3 Bft)
16.04.2015 08:55 16,2 C 21,0 C 43 % 1018,1 hPa 0,0 mm 7,0 km/h (2 Bft) W-SW 247 3,6 C 6,2 km/h (2 Bft)
16.04.2015 09:00 16,6 C 21,5 C 43 % 1018,1 hPa 0,0 mm 6,5 km/h (2 Bft) W-SW 247 4,0 C 6,2 km/h (2 Bft)
16.04.2015 09:05 16,8 C 22,1 C 43 % 1018,4 hPa 0,0 mm 5,7 km/h (1 Bft) W 270 4,2 C 7,0 km/h (2 Bft)
16.04.2015 09:10 16,9 C 22,1 C 42 % 1018,4 hPa 0,0 mm 5,4 km/h (1 Bft) W-SW 247 3,9 C 8,8 km/h (2 Bft)
16.04.2015 09:15 17,5 C 22,7 C 41 % 1018,4 hPa 0,0 mm 7,0 km/h (2 Bft) SW 225 4,1 C 19,2 km/h (3 Bft)
16.04.2015 09:20 17,5 C 22,8 C 39 % 1018,4 hPa 0,0 mm 8,3 km/h (2 Bft) W-NW 292 3,4 C 8,0 km/h (2 Bft)
16.04.2015 09:25 17,2 C 20,8 C 39 % 1018,1 hPa 0,0 mm 8,8 km/h (2 Bft) SW 225 3,1 C 12,4 km/h (3 Bft)
16.04.2015 09:30 17,0 C 19,8 C 38 % 1018,1 hPa 0,0 mm 8,3 km/h (2 Bft) W-SW 247 2,6 C 6,2 km/h (2 Bft)
16.04.2015 09:35 17,2 C 20,0 C 39 % 1018,1 hPa 0,0 mm 8,0 km/h (2 Bft) W-NW 292 3,1 C 3,9 km/h (1 Bft)
16.04.2015 09:40 17,5 C 20,4 C 39 % 1018,1 hPa 0,0 mm 7,5 km/h (2 Bft) NW 315 3,4 C 6,7 km/h (2 Bft)
16.04.2015 09:45 17,5 C 20,6 C 38 % 1018,6 hPa 0,0 mm 8,5 km/h (2 Bft) W 270 3,0 C 13,7 km/h (3 Bft)
16.04.2015 09:50 17,6 C 20,8 C 37 % 1018,6 hPa 0,0 mm 10,1 km/h (2 Bft) W-NW 292 2,7 C 22,5 km/h (4 Bft)
16.04.2015 09:55 17,6 C 21,0 C 38 % 1018,6 hPa 0,0 mm 11,1 km/h (2 Bft) S 180 3,1 C 14,0 km/h (3 Bft)
16.04.2015 10:00 17,8 C 21,3 C 38 % 1018,6 hPa 0,0 mm 10,4 km/h (2 Bft) W 270 3,3 C 7,0 km/h (2 Bft)
16.04.2015 10:05 18,3 C 22,7 C 38 % 1018,9 hPa 0,0 mm 9,3 km/h (2 Bft) W-SW 247 3,7 C 12,2 km/h (2 Bft)
16.04.2015 10:10 18,5 C 23,4 C 38 % 1018,9 hPa 0,0 mm 8,8 km/h (2 Bft) SW 225 3,9 C 13,2 km/h (3 Bft)
16.04.2015 10:15 18,3 C 23,8 C 37 % 1018,9 hPa 0,0 mm 9,6 km/h (2 Bft) W-SW 247 3,4 C 9,8 km/h (2 Bft)
16.04.2015 10:20 17,9 C 22,0 C 38 % 1018,9 hPa 0,0 mm 9,6 km/h (2 Bft) W-SW 247 3,4 C 7,5 km/h (2 Bft)
16.04.2015 10:25 18,3 C 21,6 C 39 % 1018,9 hPa 0,0 mm 8,8 km/h (2 Bft) W 270 4,1 C 13,2 km/h (3 Bft)
16.04.2015 10:30 18,4 C 22,4 C 39 % 1018,9 hPa 0,0 mm 7,3 km/h (2 Bft) W-SW 247 4,2 C 3,9 km/h (1 Bft)
16.04.2015 10:35 18,7 C 23,5 C 38 % 1018,9 hPa 0,0 mm 7,5 km/h (2 Bft) SW 225 4,1 C 20,7 km/h (4 Bft)
16.04.2015 10:40 18,3 C 22,9 C 38 % 1018,9 hPa 0,0 mm 8,8 km/h (2 Bft) SW 225 3,7 C 9,8 km/h (2 Bft)
16.04.2015 10:45 18,5 C 22,3 C 39 % 1019,1 hPa 0,0 mm 9,6 km/h (2 Bft) SW 225 4,3 C 13,2 km/h (3 Bft)
16.04.2015 10:50 18,9 C 23,1 C 38 % 1019,1 hPa 0,0 mm 8,3 km/h (2 Bft) W-NW 292 4,3 C 8,5 km/h (2 Bft)
16.04.2015 10:55 19,5 C 24,5 C 38 % 1019,1 hPa 0,0 mm 7,3 km/h (2 Bft) W 270 4,8 C 9,1 km/h (2 Bft)
16.04.2015 11:00 19,6 C 24,6 C 38 % 1019,1 hPa 0,0 mm 8,3 km/h (2 Bft) W 270 4,9 C 6,2 km/h (2 Bft)
16.04.2015 11:05 20,1 C 25,4 C 37 % 1019,0 hPa 0,0 mm 8,8 km/h (2 Bft) W-NW 292 5,0 C 23,0 km/h (4 Bft)
16.04.2015 11:10 20,2 C 25,5 C 37 % 1019,0 hPa 0,0 mm 8,5 km/h (2 Bft) W-SW 247 5,0 C 8,8 km/h (2 Bft)
16.04.2015 11:15 20,1 C 25,1 C 35 % 1019,0 hPa 0,0 mm 12,2 km/h (2 Bft) W-NW 292 4,2 C 25,9 km/h (4 Bft)
16.04.2015 11:20 20,0 C 24,7 C 34 % 1019,0 hPa 0,0 mm 12,7 km/h (3 Bft) W-SW 247 3,7 C 7,8 km/h (2 Bft)
16.04.2015 11:25 19,8 C 23,7 C 34 % 1019,0 hPa 0,0 mm 12,4 km/h (3 Bft) W-SW 247 3,5 C 13,5 km/h (3 Bft)
16.04.2015 11:30 19,9 C 23,4 C 33 % 1019,0 hPa 0,0 mm 12,2 km/h (2 Bft) W-SW 247 3,2 C 10,9 km/h (2 Bft)
16.04.2015 11:35 20,0 C 23,6 C 33 % 1019,0 hPa 0,0 mm 12,4 km/h (3 Bft) W 270 3,2 C 12,7 km/h (3 Bft)
16.04.2015 11:40 20,0 C 23,5 C 32 % 1019,0 hPa 0,0 mm 12,4 km/h (3 Bft) SW 225 2,8 C 11,1 km/h (2 Bft)
16.04.2015 11:45 20,0 C 23,4 C 32 % 1019,0 hPa 0,0 mm 13,5 km/h (3 Bft) W-SW 247 2,8 C 27,2 km/h (4 Bft)
16.04.2015 11:50 20,1 C 23,3 C 33 % 1019,0 hPa 0,0 mm 11,7 km/h (2 Bft) W-SW 247 3,3 C 11,9 km/h (2 Bft)
16.04.2015 11:55 19,9 C 22,9 C 33 % 1019,0 hPa 0,0 mm 11,7 km/h (2 Bft) W 270 3,2 C 8,3 km/h (2 Bft)
16.04.2015 12:00 20,2 C 23,2 C 33 % 1019,0 hPa 0,0 mm 11,7 km/h (2 Bft) W-NW 292 3,4 C 7,8 km/h (2 Bft)
16.04.2015 12:05 20,1 C 22,9 C 33 % 1018,7 hPa 0,0 mm 12,7 km/h (3 Bft) W-NW 292 3,3 C 13,5 km/h (3 Bft)
16.04.2015 12:10 20,2 C 22,7 C 33 % 1018,7 hPa 0,0 mm 13,5 km/h (3 Bft) W-SW 247 3,4 C 15,0 km/h (3 Bft)
16.04.2015 12:15 20,0 C 22,5 C 32 % 1018,7 hPa 0,0 mm 12,4 km/h (3 Bft) NW 315 2,8 C 19,9 km/h (4 Bft)
16.04.2015 12:20 19,8 C 22,3 C 32 % 1018,7 hPa 0,0 mm 12,7 km/h (3 Bft) NW 315 2,6 C 15,5 km/h (3 Bft)
16.04.2015 12:25 19,5 C 21,9 C 32 % 1018,7 hPa 0,0 mm 12,7 km/h (3 Bft) W-SW 247 2,4 C 18,1 km/h (3 Bft)
16.04.2015 12:30 19,5 C 21,5 C 32 % 1018,7 hPa 0,0 mm 12,7 km/h (3 Bft) W-NW 292 2,4 C 19,9 km/h (4 Bft)
16.04.2015 12:35 19,3 C 21,2 C 32 % 1018,7 hPa 0,0 mm 11,7 km/h (2 Bft) W-NW 292 2,2 C 8,0 km/h (2 Bft)
16.04.2015 12:40 19,4 C 21,2 C 32 % 1018,7 hPa 0,0 mm 10,9 km/h (2 Bft) W 270 2,3 C 10,1 km/h (2 Bft)
16.04.2015 12:45 19,3 C 21,0 C 32 % 1018,4 hPa 0,0 mm 9,3 km/h (2 Bft) W-NW 292 2,2 C 18,9 km/h (3 Bft)
16.04.2015 12:50 19,3 C 20,8 C 32 % 1018,4 hPa 0,0 mm 9,3 km/h (2 Bft) NW 315 2,2 C 9,6 km/h (2 Bft)
16.04.2015 12:55 19,2 C 20,8 C 32 % 1018,4 hPa 0,0 mm 9,3 km/h (2 Bft) W-NW 292 2,1 C 11,9 km/h (2 Bft)
16.04.2015 13:00 19,2 C 20,8 C 33 % 1018,4 hPa 0,0 mm 8,0 km/h (2 Bft) N-NO 22 2,5 C 5,7 km/h (1 Bft)
16.04.2015 13:05 19,3 C 20,9 C 34 % 1018,2 hPa 0,0 mm 7,8 km/h (2 Bft) W-NW 292 3,0 C 12,7 km/h (3 Bft)
16.04.2015 13:10 19,5 C 21,2 C 34 % 1018,2 hPa 0,0 mm 8,0 km/h (2 Bft) W 270 3,2 C 7,0 km/h (2 Bft)
16.04.2015 13:15 19,5 C 21,5 C 34 % 1018,2 hPa 0,0 mm 8,3 km/h (2 Bft) W 270 3,2 C 8,5 km/h (2 Bft)
16.04.2015 13:20 19,6 C 21,6 C 34 % 1018,2 hPa 0,0 mm 7,8 km/h (2 Bft) NW 315 3,3 C 8,8 km/h (2 Bft)
16.04.2015 13:25 19,8 C 21,8 C 34 % 1018,1 hPa 0,0 mm 7,0 km/h (2 Bft) W-NW 292 3,5 C 10,9 km/h (2 Bft)
16.04.2015 13:30 19,9 C 21,8 C 35 % 1018,1 hPa 0,0 mm 6,7 km/h (2 Bft) NW 315 4,0 C 8,8 km/h (2 Bft)
16.04.2015 13:35 19,7 C 21,3 C 35 % 1018,1 hPa 0,0 mm 8,0 km/h (2 Bft) W-NW 292 3,8 C 7,8 km/h (2 Bft)
16.04.2015 13:40 19,4 C 20,9 C 35 % 1018,1 hPa 0,0 mm 7,8 km/h (2 Bft) NW 315 3,5 C 8,3 km/h (2 Bft)
16.04.2015 13:45 19,4 C 20,8 C 35 % 1018,2 hPa 0,0 mm 7,8 km/h (2 Bft) NW 315 3,5 C 17,1 km/h (3 Bft)
16.04.2015 13:50 19,4 C 20,8 C 34 % 1018,2 hPa 0,0 mm 10,1 km/h (2 Bft) N 360 3,1 C 16,6 km/h (3 Bft)
16.04.2015 13:55 19,5 C 21,0 C 36 % 1018,2 hPa 0,0 mm 10,1 km/h (2 Bft) NW 315 4,0 C 14,2 km/h (3 Bft)
16.04.2015 14:00 19,4 C 21,0 C 36 % 1018,2 hPa 0,0 mm 8,8 km/h (2 Bft) W-NW 292 3,9 C 4,4 km/h (1 Bft)
16.04.2015 14:05 19,4 C 21,0 C 36 % 1017,8 hPa 0,0 mm 9,1 km/h (2 Bft) W 270 3,9 C 14,0 km/h (3 Bft)
16.04.2015 14:10 19,4 C 21,0 C 36 % 1017,8 hPa 0,0 mm 8,5 km/h (2 Bft) NW 315 3,9 C 10,1 km/h (2 Bft)
16.04.2015 14:15 19,4 C 21,0 C 37 % 1017,8 hPa 0,0 mm 8,0 km/h (2 Bft) NW 315 4,3 C 5,2 km/h (1 Bft)
16.04.2015 14:20 19,5 C 21,4 C 36 % 1017,8 hPa 0,0 mm 7,0 km/h (2 Bft) W-SW 247 4,0 C 6,2 km/h (2 Bft)
16.04.2015 14:25 19,6 C 22,2 C 36 % 1017,6 hPa 0,0 mm 6,0 km/h (2 Bft) W 270 4,1 C 7,5 km/h (2 Bft)
16.04.2015 14:30 19,9 C 22,7 C 37 % 1017,6 hPa 0,0 mm 6,2 km/h (2 Bft) W 270 4,8 C 12,9 km/h (3 Bft)
16.04.2015 14:35 20,2 C 23,3 C 37 % 1017,6 hPa 0,0 mm 7,0 km/h (2 Bft) NW 315 5,0 C 6,2 km/h (2 Bft)
16.04.2015 14:40 20,2 C 23,1 C 36 % 1017,6 hPa 0,0 mm 7,3 km/h (2 Bft) N 360 4,7 C 7,8 km/h (2 Bft)
16.04.2015 14:45 20,2 C 23,3 C 36 % 1017,2 hPa 0,0 mm 5,2 km/h (1 Bft) NW 315 4,7 C 2,8 km/h (1 Bft)
16.04.2015 14:50 20,5 C 24,0 C 36 % 1017,2 hPa 0,0 mm 4,7 km/h (1 Bft) NW 315 4,9 C 7,5 km/h (2 Bft)
16.04.2015 14:55 21,1 C 24,9 C 36 % 1017,2 hPa 0,0 mm 4,9 km/h (1 Bft) W-SW 247 5,4 C 12,7 km/h (3 Bft)
16.04.2015 15:00 20,8 C 24,5 C 37 % 1017,2 hPa 0,0 mm 6,2 km/h (2 Bft) W 270 5,6 C 8,0 km/h (2 Bft)
16.04.2015 15:05 20,6 C 23,7 C 37 % 1017,6 hPa 0,0 mm 7,0 km/h (2 Bft) N-NW 337 5,4 C 7,3 km/h (2 Bft)
16.04.2015 15:10 20,9 C 23,8 C 37 % 1017,6 hPa 0,0 mm 5,4 km/h (1 Bft) W 270 5,7 C 5,2 km/h (1 Bft)
16.04.2015 15:15 20,9 C 24,2 C 36 % 1017,6 hPa 0,0 mm 7,0 km/h (2 Bft) W-NW 292 5,3 C 12,7 km/h (3 Bft)
16.04.2015 15:20 20,9 C 23,9 C 35 % 1017,6 hPa 0,0 mm 9,1 km/h (2 Bft) W 270 4,9 C 12,9 km/h (3 Bft)
16.04.2015 15:25 21,0 C 23,8 C 35 % 1017,1 hPa 0,0 mm 9,3 km/h (2 Bft) W 270 5,0 C 15,5 km/h (3 Bft)
16.04.2015 15:30 21,1 C 24,0 C 35 % 1017,1 hPa 0,0 mm 8,8 km/h (2 Bft) NW 315 5,0 C 8,5 km/h (2 Bft)
16.04.2015 15:35 21,1 C 23,8 C 34 % 1017,1 hPa 0,0 mm 10,9 km/h (2 Bft) NW 315 4,6 C 15,8 km/h (3 Bft)
16.04.2015 15:40 20,9 C 23,5 C 35 % 1017,1 hPa 0,0 mm 10,4 km/h (2 Bft) N-NW 337 4,9 C 8,5 km/h (2 Bft)
16.04.2015 15:45 20,9 C 23,1 C 35 % 1016,4 hPa 0,0 mm 8,8 km/h (2 Bft) NW 315 4,9 C 12,4 km/h (3 Bft)
16.04.2015 15:50 21,1 C 23,3 C 34 % 1016,4 hPa 0,0 mm 8,5 km/h (2 Bft) W 270 4,6 C 13,7 km/h (3 Bft)
16.04.2015 15:55 20,8 C 22,9 C 35 % 1016,4 hPa 0,0 mm 10,4 km/h (2 Bft) N-NW 337 4,8 C 14,5 km/h (3 Bft)
16.04.2015 16:00 20,6 C 22,5 C 35 % 1016,4 hPa 0,0 mm 11,9 km/h (2 Bft) W-NW 292 4,6 C 15,0 km/h (3 Bft)
16.04.2015 16:05 20,6 C 22,5 C 36 % 1016,3 hPa 0,0 mm 10,9 km/h (2 Bft) NW 315 5,0 C 13,2 km/h (3 Bft)
16.04.2015 16:10 20,5 C 22,5 C 35 % 1016,3 hPa 0,0 mm 10,6 km/h (2 Bft) NW 315 4,5 C 16,3 km/h (3 Bft)
16.04.2015 16:15 20,4 C 22,3 C 36 % 1016,3 hPa 0,0 mm 11,1 km/h (2 Bft) NW 315 4,8 C 9,1 km/h (2 Bft)
16.04.2015 16:20 20,8 C 22,6 C 36 % 1016,3 hPa 0,0 mm 10,9 km/h (2 Bft) W 270 5,2 C 9,3 km/h (2 Bft)
16.04.2015 16:25 21,3 C 24,2 C 36 % 1016,2 hPa 0,0 mm 10,6 km/h (2 Bft) N-NO 22 5,6 C 8,0 km/h (2 Bft)
16.04.2015 16:30 21,4 C 25,0 C 36 % 1016,2 hPa 0,0 mm 10,6 km/h (2 Bft) SW 225 5,7 C 17,6 km/h (3 Bft)
16.04.2015 16:35 21,2 C 25,0 C 35 % 1016,2 hPa 0,0 mm 8,8 km/h (2 Bft) W 270 5,1 C 9,8 km/h (2 Bft)
16.04.2015 16:40 21,2 C 24,9 C 35 % 1016,2 hPa 0,0 mm 9,3 km/h (2 Bft) W 270 5,1 C 11,1 km/h (2 Bft)
16.04.2015 16:45 21,1 C 24,6 C 35 % 1015,9 hPa 0,0 mm 9,6 km/h (2 Bft) W 270 5,0 C 8,5 km/h (2 Bft)
16.04.2015 16:50 21,2 C 24,0 C 35 % 1015,9 hPa 0,0 mm 9,8 km/h (2 Bft) NW 315 5,1 C 7,0 km/h (2 Bft)
16.04.2015 16:55 21,0 C 23,7 C 35 % 1015,9 hPa 0,0 mm 9,6 km/h (2 Bft) W 270 5,0 C 18,6 km/h (3 Bft)
16.04.2015 17:00 21,0 C 23,9 C 35 % 1015,9 hPa 0,0 mm 9,6 km/h (2 Bft) W 270 5,0 C 9,8 km/h (2 Bft)
16.04.2015 17:05 20,9 C 23,7 C 35 % 1015,8 hPa 0,0 mm 10,4 km/h (2 Bft) W 270 4,9 C 12,2 km/h (2 Bft)
16.04.2015 17:10 20,8 C 23,3 C 35 % 1015,8 hPa 0,0 mm 9,6 km/h (2 Bft) W 270 4,8 C 12,7 km/h (3 Bft)
16.04.2015 17:15 20,8 C 22,9 C 34 % 1015,8 hPa 0,0 mm 10,6 km/h (2 Bft) W 270 4,4 C 10,1 km/h (2 Bft)
16.04.2015 17:20 20,6 C 22,5 C 34 % 1015,8 hPa 0,0 mm 11,1 km/h (2 Bft) W-SW 247 4,2 C 11,9 km/h (2 Bft)
16.04.2015 17:25 20,5 C 22,0 C 35 % 1015,5 hPa 0,0 mm 9,6 km/h (2 Bft) NW 315 4,5 C 6,7 km/h (2 Bft)
16.04.2015 17:30 20,5 C 21,7 C 35 % 1015,5 hPa 0,0 mm 9,3 km/h (2 Bft) NW 315 4,5 C 15,0 km/h (3 Bft)
16.04.2015 17:35 20,4 C 21,5 C 34 % 1015,5 hPa 0,0 mm 9,3 km/h (2 Bft) NW 315 4,0 C 10,9 km/h (2 Bft)
16.04.2015 17:40 20,1 C 21,2 C 34 % 1015,5 hPa 0,0 mm 9,1 km/h (2 Bft) W-NW 292 3,7 C 14,2 km/h (3 Bft)
16.04.2015 17:45 19,8 C 20,5 C 34 % 1015,3 hPa 0,0 mm 8,0 km/h (2 Bft) NW 315 3,5 C 10,6 km/h (2 Bft)
16.04.2015 17:50 19,6 C 20,2 C 34 % 1015,3 hPa 0,0 mm 7,5 km/h (2 Bft) W-NW 292 3,3 C 2,8 km/h (1 Bft)
16.04.2015 17:55 19,7 C 20,2 C 34 % 1015,3 hPa 0,0 mm 5,2 km/h (1 Bft) W-NW 292 3,4 C 5,4 km/h (1 Bft)
16.04.2015 18:00 19,7 C 20,4 C 34 % 1015,3 hPa 0,0 mm 5,2 km/h (1 Bft) W-NW 292 3,4 C 9,8 km/h (2 Bft)
16.04.2015 18:05 19,7 C 20,6 C 34 % 1015,3 hPa 0,0 mm 8,0 km/h (2 Bft) NW 315 3,4 C 9,3 km/h (2 Bft)
16.04.2015 18:10 19,7 C 20,6 C 34 % 1015,3 hPa 0,0 mm 8,3 km/h (2 Bft) N-NW 337 3,4 C 9,8 km/h (2 Bft)
16.04.2015 18:15 19,7 C 20,6 C 34 % 1015,3 hPa 0,0 mm 7,8 km/h (2 Bft) W 270 3,4 C 11,4 km/h (2 Bft)
16.04.2015 18:20 19,7 C 20,6 C 34 % 1015,3 hPa 0,0 mm 7,3 km/h (2 Bft) W-SW 247 3,4 C 12,4 km/h (3 Bft)
16.04.2015 18:25 19,5 C 20,5 C 33 % 1015,1 hPa 0,0 mm 9,8 km/h (2 Bft) W-NW 292 2,8 C 11,7 km/h (2 Bft)
16.04.2015 18:30 19,3 C 20,5 C 32 % 1015,1 hPa 0,0 mm 10,9 km/h (2 Bft) N-NW 337 2,2 C 11,1 km/h (2 Bft)
16.04.2015 18:35 18,8 C 20,0 C 33 % 1015,1 hPa 0,0 mm 8,8 km/h (2 Bft) W-NW 292 2,2 C 9,8 km/h (2 Bft)
16.04.2015 18:40 18,5 C 19,5 C 33 % 1015,1 hPa 0,0 mm 7,8 km/h (2 Bft) W 270 1,9 C 8,8 km/h (2 Bft)
16.04.2015 18:45 17,9 C 18,8 C 33 % 1015,2 hPa 0,0 mm 4,7 km/h (1 Bft) W 270 1,4 C 4,1 km/h (1 Bft)
16.04.2015 18:50 17,7 C 18,4 C 33 % 1015,2 hPa 0,0 mm 2,8 km/h (1 Bft) S 180 1,2 C 3,9 km/h (1 Bft)
16.04.2015 18:55 17,6 C 18,0 C 33 % 1015,2 hPa 0,0 mm 2,1 km/h (1 Bft) S 180 1,1 C 0,0 km/h (0 Bft)
16.04.2015 19:00 17,4 C 17,8 C 34 % 1015,2 hPa 0,0 mm 1,8 km/h (1 Bft) S-SO 157 1,4 C 0,0 km/h (0 Bft)
16.04.2015 19:05 17,0 C 17,4 C 35 % 1015,2 hPa 0,0 mm 2,8 km/h (1 Bft) SW 225 1,4 C 8,5 km/h (2 Bft)
16.04.2015 19:10 16,9 C 17,3 C 35 % 1015,2 hPa 0,0 mm 3,6 km/h (1 Bft) S 180 1,3 C 4,1 km/h (1 Bft)
16.04.2015 19:15 16,7 C 17,0 C 36 % 1015,2 hPa 0,0 mm 3,1 km/h (1 Bft) S-SO 157 1,6 C 5,7 km/h (1 Bft)
16.04.2015 19:20 16,6 C 17,0 C 37 % 1015,2 hPa 0,0 mm 2,1 km/h (1 Bft) S-SO 157 1,9 C 0,0 km/h (0 Bft)
16.04.2015 19:25 16,7 C 16,8 C 37 % 1015,1 hPa 0,0 mm 3,9 km/h (1 Bft) S 180 1,9 C 6,5 km/h (2 Bft)
16.04.2015 19:30 16,7 C 16,8 C 37 % 1015,1 hPa 0,0 mm 5,7 km/h (1 Bft) S 180 1,9 C 6,5 km/h (2 Bft)
16.04.2015 19:35 16,5 C 16,7 C 37 % 1015,1 hPa 0,0 mm 5,4 km/h (1 Bft) S 180 1,8 C 4,9 km/h (1 Bft)
16.04.2015 19:40 16,4 C 16,6 C 37 % 1015,1 hPa 0,0 mm 5,2 km/h (1 Bft) S 180 1,7 C 6,2 km/h (2 Bft)
16.04.2015 19:45 16,3 C 16,4 C 37 % 1015,1 hPa 0,0 mm 5,4 km/h (1 Bft) SW 225 1,6 C 8,8 km/h (2 Bft)
16.04.2015 19:50 16,1 C 16,3 C 38 % 1015,1 hPa 0,0 mm 6,0 km/h (2 Bft) S 180 1,8 C 4,9 km/h (1 Bft)
16.04.2015 19:55 16,2 C 16,2 C 38 % 1015,1 hPa 0,0 mm 7,5 km/h (2 Bft) S 180 1,9 C 9,6 km/h (2 Bft)
16.04.2015 20:00 16,2 C 16,2 C 38 % 1015,1 hPa 0,0 mm 7,3 km/h (2 Bft) S 180 1,9 C 9,1 km/h (2 Bft)
16.04.2015 20:05 16,0 C 16,1 C 39 % 1015,2 hPa 0,0 mm 7,0 km/h (2 Bft) SW 225 2,1 C 10,1 km/h (2 Bft)
16.04.2015 20:10 15,8 C 16,0 C 39 % 1015,2 hPa 0,0 mm 6,7 km/h (2 Bft) S-SW 202 1,9 C 8,8 km/h (2 Bft)
16.04.2015 20:15 15,7 C 15,9 C 40 % 1015,2 hPa 0,0 mm 7,3 km/h (2 Bft) S 180 2,1 C 6,2 km/h (2 Bft)
16.04.2015 20:20 15,5 C 15,8 C 41 % 1015,2 hPa 0,0 mm 6,0 km/h (2 Bft) SW 225 2,3 C 0,0 km/h (0 Bft)
16.04.2015 20:25 14,9 C 15,3 C 43 % 1014,9 hPa 0,0 mm 2,1 km/h (1 Bft) S-SO 157 2,4 C 0,0 km/h (0 Bft)
16.04.2015 20:30 14,7 C 15,0 C 44 % 1014,9 hPa 0,0 mm 0,8 km/h (0 Bft) SO 135 2,6 C 0,0 km/h (0 Bft)
16.04.2015 20:35 14,6 C 14,7 C 46 % 1014,9 hPa 0,0 mm 0,5 km/h (0 Bft) S-SO 157 3,1 C 0,0 km/h (0 Bft)
16.04.2015 20:40 14,5 C 14,5 C 46 % 1014,9 hPa 0,0 mm 1,0 km/h (0 Bft) S 180 3,0 C 3,1 km/h (1 Bft)
16.04.2015 20:45 14,0 C 14,2 C 48 % 1015,2 hPa 0,0 mm 1,6 km/h (1 Bft) S-SO 157 3,2 C 0,0 km/h (0 Bft)
16.04.2015 20:50 14,0 C 14,0 C 48 % 1015,2 hPa 0,0 mm 1,0 km/h (0 Bft) S-SO 157 3,2 C 0,0 km/h (0 Bft)
16.04.2015 20:55 13,9 C 13,9 C 48 % 1015,2 hPa 0,0 mm 0,8 km/h (0 Bft) SW 225 3,1 C 4,7 km/h (1 Bft)
16.04.2015 21:00 14,0 C 13,9 C 48 % 1015,2 hPa 0,0 mm 1,6 km/h (1 Bft) S-SW 202 3,2 C 3,9 km/h (1 Bft)
16.04.2015 21:05 13,9 C 13,9 C 49 % 1015,3 hPa 0,0 mm 3,6 km/h (1 Bft) S-SW 202 3,4 C 7,5 km/h (2 Bft)
16.04.2015 21:10 13,7 C 13,9 C 49 % 1015,3 hPa 0,0 mm 4,9 km/h (1 Bft) S 180 3,2 C 8,3 km/h (2 Bft)
16.04.2015 21:15 13,8 C 13,9 C 49 % 1015,3 hPa 0,0 mm 6,2 km/h (2 Bft) S-SW 202 3,3 C 9,8 km/h (2 Bft)
16.04.2015 21:20 13,7 C 13,9 C 50 % 1015,3 hPa 0,0 mm 6,5 km/h (2 Bft) S 180 3,5 C 6,2 km/h (2 Bft)
16.04.2015 21:25 13,5 C 13,8 C 50 % 1015,4 hPa 0,0 mm 6,0 km/h (2 Bft) SW 225 3,3 C 12,4 km/h (3 Bft)
16.04.2015 21:30 13,5 C 13,7 C 50 % 1015,4 hPa 0,0 mm 4,9 km/h (1 Bft) SW 225 3,3 C 8,3 km/h (2 Bft)
16.04.2015 21:35 13,6 C 13,6 C 50 % 1015,4 hPa 0,0 mm 3,9 km/h (1 Bft) S-SO 157 3,4 C 4,4 km/h (1 Bft)
16.04.2015 21:40 13,3 C 13,5 C 50 % 1015,4 hPa 0,0 mm 2,8 km/h (1 Bft) S 180 3,1 C 0,0 km/h (0 Bft)
16.04.2015 21:45 13,9 C 13,8 C 49 % 1015,4 hPa 0,0 mm 4,7 km/h (1 Bft) S 180 3,4 C 14,2 km/h (3 Bft)
16.04.2015 21:50 14,0 C 14,0 C 48 % 1015,4 hPa 0,0 mm 6,7 km/h (2 Bft) S 180 3,2 C 5,2 km/h (1 Bft)
16.04.2015 21:55 13,8 C 14,0 C 49 % 1015,4 hPa 0,0 mm 7,3 km/h (2 Bft) S 180 3,3 C 3,9 km/h (1 Bft)
16.04.2015 22:00 14,1 C 14,1 C 48 % 1015,4 hPa 0,0 mm 7,0 km/h (2 Bft) S 180 3,3 C 8,5 km/h (2 Bft)
16.04.2015 22:05 14,3 C 14,3 C 47 % 1015,4 hPa 0,0 mm 7,0 km/h (2 Bft) S 180 3,1 C 7,0 km/h (2 Bft)
16.04.2015 22:10 14,3 C 14,3 C 47 % 1015,4 hPa 0,0 mm 5,4 km/h (1 Bft) W-SW 247 3,1 C 6,7 km/h (2 Bft)
16.04.2015 22:15 14,2 C 14,2 C 47 % 1015,4 hPa 0,0 mm 5,2 km/h (1 Bft) S 180 3,1 C 11,7 km/h (2 Bft)
16.04.2015 22:20 14,2 C 14,2 C 47 % 1015,4 hPa 0,0 mm 6,5 km/h (2 Bft) S 180 3,1 C 11,9 km/h (2 Bft)
16.04.2015 22:25 14,1 C 14,2 C 48 % 1015,6 hPa 0,0 mm 6,7 km/h (2 Bft) S-SW 202 3,3 C 4,9 km/h (1 Bft)
16.04.2015 22:30 13,8 C 14,2 C 48 % 1015,6 hPa 0,0 mm 5,4 km/h (1 Bft) S-SW 202 3,0 C 5,7 km/h (1 Bft)
16.04.2015 22:35 13,6 C 14,0 C 49 % 1015,6 hPa 0,0 mm 2,8 km/h (1 Bft) SW 225 3,1 C 5,4 km/h (1 Bft)
16.04.2015 22:40 13,5 C 13,8 C 50 % 1015,6 hPa 0,0 mm 2,3 km/h (1 Bft) S 180 3,3 C 0,0 km/h (0 Bft)
16.04.2015 22:45 13,4 C 13,6 C 50 % 1015,8 hPa 0,0 mm 3,1 km/h (1 Bft) SW 225 3,2 C 6,7 km/h (2 Bft)
16.04.2015 22:50 13,6 C 13,7 C 50 % 1015,8 hPa 0,0 mm 4,4 km/h (1 Bft) S-SW 202 3,4 C 7,5 km/h (2 Bft)
16.04.2015 22:55 13,9 C 13,9 C 49 % 1015,8 hPa 0,0 mm 7,3 km/h (2 Bft) W-SW 247 3,4 C 13,2 km/h (3 Bft)
16.04.2015 23:00 13,8 C 13,9 C 49 % 1015,8 hPa 0,0 mm 6,7 km/h (2 Bft) W 270 3,3 C 7,8 km/h (2 Bft)
16.04.2015 23:05 13,6 C 13,8 C 49 % 1015,8 hPa 0,0 mm 5,2 km/h (1 Bft) W-NW 292 3,1 C 7,0 km/h (2 Bft)
16.04.2015 23:10 13,7 C 13,8 C 49 % 1015,8 hPa 0,0 mm 4,9 km/h (1 Bft) SW 225 3,2 C 7,3 km/h (2 Bft)
16.04.2015 23:15 13,8 C 13,8 C 49 % 1015,8 hPa 0,0 mm 6,5 km/h (2 Bft) W-SW 247 3,3 C 9,1 km/h (2 Bft)
16.04.2015 23:20 13,8 C 13,8 C 49 % 1015,8 hPa 0,0 mm 6,5 km/h (2 Bft) W-SW 247 3,3 C 5,2 km/h (1 Bft)
16.04.2015 23:25 13,8 C 13,8 C 49 % 1015,7 hPa 0,0 mm 6,2 km/h (2 Bft) W-SW 247 3,3 C 6,0 km/h (2 Bft)
16.04.2015 23:30 13,8 C 13,8 C 49 % 1015,7 hPa 0,0 mm 6,5 km/h (2 Bft) SW 225 3,3 C 8,5 km/h (2 Bft)
16.04.2015 23:35 13,8 C 13,8 C 49 % 1015,7 hPa 0,0 mm 7,8 km/h (2 Bft) S-SW 202 3,3 C 6,5 km/h (2 Bft)
16.04.2015 23:40 13,7 C 13,7 C 49 % 1015,7 hPa 0,0 mm 6,7 km/h (2 Bft) S-SW 202 3,2 C 6,0 km/h (2 Bft)
16.04.2015 23:45 13,6 C 13,6 C 49 % 1015,8 hPa 0,0 mm 6,5 km/h (2 Bft) SW 225 3,1 C 8,8 km/h (2 Bft)
16.04.2015 23:50 13,7 C 13,7 C 49 % 1015,8 hPa 0,0 mm 6,7 km/h (2 Bft) S 180 3,2 C 6,7 km/h (2 Bft)
16.04.2015 23:55 13,5 C 13,5 C 49 % 1015,8 hPa 0,0 mm 4,9 km/h (1 Bft) W-SW 247 3,0 C 4,7 km/h (1 Bft)
_ Min-Zeit 05:10 05:10 18:30 20:40 - 07:40 - - 05:10 22:40
Minimum _ 4,1 C 4,0 C 32 % 1014,9 hPa - 0,0 km/h (0 Bft) - - -3,2 C 0,0 km/h (0 Bft)
_ Max-Zeit 16:30 11:10 01:50 11:00 23:55 12:10 - - 16:30 11:45
Maximum _ 21,4 C 25,5 C 68 % 1019,1 hPa 0,0 mm 13,5 km/h
W-SW (3 Bft)
- - 5,7 C 27,2 km/h
W-SW (4 Bft)
Durchschnitt _ 13,8 C 15,1 C 46 % 1017,2 hPa #0,0 mm 5,2 km/h (1 Bft) W - 1,9 C 6,5 km/h (2 Bft)